Location: Peebles
(55.6412°N, 3.1714°W)
Time: 17:59:00
(UTC+01:00)

NAPA-1 - Pass Details

Date: 04 July 2022
Orbit: 525 x 529 km, 97.4° (Epoch: 11 August)

Event Time Altitude Azimuth Distance (km) Brightness Sun altitude
Exits shadow 00:07:47 - 217° (SW) 2,556 ? -10.1°
Reaches altitude 10° 00:10:34 10° 243° (WSW) 1,776 ? -10.2°
Maximum altitude 00:12:29 13° 273° (W) 1,574 ? -10.3°
Drops below altitude 10° 00:14:24 10° 304° (NW) 1,782 ? -10.3°
Sets 00:17:31 0° 332° (NNW) 2,677 ? -10.4°
